| time (UTC) | temp C | wind direction | speed KPH | gust KPH | rain 1hr cm | rain 24hr cm | rain mn cm | humidity % | barometer mb |
| 20260508230004 | 11 | 135 | 0.0 | 1.6 | 0.00 | 3.48 | 0.46 | 85 | 1014.9 |
| 20260508224003 | 11 | 334 | 1.6 | 9.7 | 0.13 | 3.48 | 0.46 | 86 | 1014.5 |
| 20260508222003 | 11 | 331 | 4.8 | 12.9 | 0.41 | 3.48 | 0.46 | 88 | 1013.6 |
| 20260508220004 | 11 | 329 | 4.8 | 17.7 | 0.46 | 3.48 | 0.46 | 89 | 1012.7 |
| 20260508214003 | 11 | 71 | 3.2 | 16.1 | 0.28 | 3.30 | 0.28 | 88 | 1011.9 |
| 20260508212003 | 12 | 121 | 3.2 | 9.7 | 0.03 | 3.05 | 0.03 | 83 | 1010.7 |
| 20260508210003 | 12 | 151 | 4.8 | 17.7 | 0.00 | 3.02 | 0.00 | 80 | 1010.1 |
| 20260508204003 | 12 | 115 | 4.8 | 16.1 | 0.00 | 3.02 | 0.00 | 80 | 1010.1 |
| 20260508202003 | 12 | 139 | 6.4 | 20.9 | 0.00 | 3.02 | 0.00 | 77 | 1010.1 |
| 20260508200003 | 12 | 73 | 4.8 | 19.3 | 0.00 | 3.02 | 0.00 | 76 | 1009.6 |
| 20260508194003 | 12 | 87 | 4.8 | 20.9 | 0.00 | 3.02 | 0.00 | 76 | 1009.1 |
| 20260508192003 | 12 | 66 | 4.8 | 19.3 | 0.00 | 3.02 | 0.00 | 74 | 1009.0 |
| 20260508190003 | 12 | 115 | 3.2 | 22.5 | 0.00 | 3.02 | 0.00 | 73 | 1008.7 |
| 20260508184003 | 12 | 124 | 3.2 | 17.7 | 0.00 | 3.02 | 0.00 | 71 | 1008.4 |
| 20260508182003 | 12 | 131 | 4.8 | 17.7 | 0.00 | 3.02 | 0.00 | 70 | 1008.0 |
| 20260508180003 | 12 | 32 | 3.2 | 12.9 | 0.00 | 3.02 | 0.00 | 72 | 1007.9 |
| 20260508174003 | 12 | 96 | 3.2 | 11.3 | 0.00 | 3.02 | 0.00 | 74 | 1007.7 |
| 20260508172003 | 12 | 51 | 3.2 | 14.5 | 0.00 | 3.02 | 0.00 | 73 | 1007.7 |
| 20260508170003 | 11 | 162 | 0.0 | 4.8 | 0.00 | 3.02 | 0.00 | 81 | 1007.6 |
| 20260508164003 | 10 | 155 | 0.0 | 3.2 | 0.00 | 3.02 | 0.00 | 81 | 1007.5 |
| 20260508162003 | 11 | 57 | 0.0 | 1.6 | 0.00 | 3.02 | 0.00 | 82 | 1007.8 |
| 20260508160003 | 11 | 137 | 0.0 | 4.8 | 0.00 | 3.02 | 0.00 | 82 | 1008.2 |
| 20260508154003 | 11 | 260 | 0.0 | 1.6 | 0.00 | 3.02 | 0.00 | 84 | 1008.4 |
| 20260508152003 | 12 | 101 | 0.0 | 1.6 | 0.00 | 3.02 | 0.00 | 81 | 1008.4 |
| 20260508150005 | 12 | 34 | 1.6 | 8.0 | 0.00 | 3.02 | 0.00 | 79 | 1008.9 |
| 20260508144003 | 13 | 126 | 3.2 | 14.5 | 0.00 | 3.02 | 3.02 | 79 | 1009.0 |
| 20260508142004 | 13 | 93 | 1.6 | 12.9 | 0.00 | 3.02 | 3.02 | 80 | 1008.9 |
| 20260508140004 | 12 | 135 | 3.2 | 9.7 | 0.00 | 3.02 | 3.02 | 81 | 1008.6 |
| 20260508134003 | 13 | 95 | 3.2 | 14.5 | 0.00 | 3.02 | 3.02 | 82 | 1008.8 |
| 20260508132003 | 13 | 148 | 1.6 | 11.3 | 0.15 | 3.02 | 3.02 | 85 | 1008.6 |
| 20260508130004 | 13 | 136 | 1.6 | 8.0 | 0.23 | 3.02 | 3.02 | 87 | 1008.8 |
| 20260508124003 | 13 | 125 | 3.2 | 17.7 | 0.25 | 3.02 | 3.02 | 88 | 1009.1 |
| 20260508122003 | 13 | 347 | 1.6 | 11.3 | 0.13 | 2.87 | 2.87 | 90 | 1009.0 |
| 20260508120004 | 13 | 103 | 1.6 | 8.0 | 0.08 | 2.79 | 2.79 | 92 | 1009.0 |
| 20260508114003 | 13 | 84 | 0.0 | 4.8 | 0.05 | 2.77 | 2.77 | 93 | 1008.8 |
| 20260508112003 | 13 | 36 | 0.0 | 3.2 | 0.10 | 2.74 | 2.74 | 94 | 1008.5 |
| 20260508110004 | 13 | 0 | 0.0 | 0.0 | 0.20 | 2.72 | 2.72 | 94 | 1008.2 |
| 20260508104003 | 13 | 168 | 0.0 | 3.2 | 0.64 | 2.72 | 2.72 | 93 | 1008.1 |
| 20260508102003 | 13 | 153 | 0.0 | 3.2 | 0.79 | 2.64 | 2.64 | 94 | 1007.7 |
| 20260508100004 | 13 | 172 | 0.0 | 3.2 | 0.71 | 2.51 | 2.51 | 94 | 1006.9 |
| 20260508094003 | 14 | 329 | 0.0 | 1.6 | 0.43 | 2.06 | 2.06 | 94 | 1006.5 |
| 20260508092003 | 14 | 0 | 0.0 | 0.0 | 0.61 | 1.85 | 1.85 | 94 | 1006.2 |
| 20260508090004 | 14 | 317 | 0.0 | 3.2 | 1.02 | 1.80 | 1.80 | 93 | 1006.2 |
| 20260508084003 | 15 | 323 | 1.6 | 11.3 | 1.04 | 1.63 | 1.63 | 92 | 1006.2 |
| 20260508082003 | 15 | 332 | 3.2 | 14.5 | 0.69 | 1.24 | 1.24 | 92 | 1005.4 |
| 20260508074003 | 16 | 357 | 0.0 | 1.6 | 0.23 | 0.56 | 0.56 | 92 | 1005.0 |
| 20260508072003 | 16 | 330 | 0.0 | 1.6 | 0.25 | 0.56 | 0.56 | 92 | 1005.0 |
| 20260508070003 | 16 | 0 | 0.0 | 0.0 | 0.20 | 0.46 | 0.46 | 91 | 1005.3 |
| 20260508064003 | 16 | 31 | 0.0 | 1.6 | 0.23 | 0.33 | 0.33 | 89 | 1005.4 |
| 20260508062003 | 16 | 130 | 0.0 | 1.6 | 0.30 | 0.30 | 0.30 | 88 | 1005.1 |
| 20260508060003 | 17 | 67 | 0.0 | 1.6 | 0.25 | 0.25 | 0.25 | 86 | 1005.3 |
| 20260508054004 | 18 | 137 | 0.0 | 4.8 | 0.10 | 0.10 | 0.10 | 77 | 1005.6 |
| 20260508052004 | 20 | 290 | 0.0 | 3.2 | 0.00 | 0.00 | 0.00 | 72 | 1005.0 |
| 20260508050004 | 20 | 191 | 1.6 | 4.8 | 0.00 | 0.00 | 0.00 | 71 | 1005.4 |
| 20260508044004 | 20 | 65 | 3.2 | 14.5 | 0.00 | 0.00 | 0.00 | 67 | 1005.9 |
| 20260508042004 | 21 | 339 | 1.6 | 6.4 | 0.00 | 0.00 | 0.00 | 65 | 1005.9 |
| 20260508040004 | 21 | 342 | 3.2 | 8.0 | 0.00 | 0.00 | 0.00 | 64 | 1005.7 |
| 20260508032004 | 21 | 328 | 8.0 | 24.1 | 0.00 | 0.00 | 0.00 | 64 | 1006.0 |
| 20260508030004 | 23 | 330 | 3.2 | 8.0 | 0.00 | 0.00 | 0.00 | 61 | 1005.3 |
| 20260508024004 | 23 | 320 | 4.8 | 12.9 | 0.00 | 0.00 | 0.00 | 65 | 1005.4 |
| 20260508022004 | 23 | 326 | 1.6 | 6.4 | 0.00 | 0.00 | 0.00 | 61 | 1005.3 |
| 20260508020004 | 23 | 325 | 3.2 | 6.4 | 0.00 | 0.00 | 0.00 | 63 | 1005.3 |
| 20260508014003 | 23 | 329 | 0.0 | 4.8 | 0.00 | 0.00 | 0.00 | 62 | 1005.7 |
| 20260508012003 | 22 | 350 | 0.0 | 3.2 | 0.00 | 0.00 | 0.00 | 62 | 1005.8 |
| 20260508010004 | 22 | 353 | 0.0 | 3.2 | 0.00 | 0.00 | 0.00 | 66 | 1006.3 |
| 20260508004004 | 21 | 7 | 0.0 | 1.6 | 0.00 | 0.00 | 0.00 | 66 | 1006.3 |
| 20260508002004 | 21 | 19 | 0.0 | 3.2 | 0.00 | 0.00 | 0.00 | 66 | 1006.7 |
| 20260507234004 | 20 | 334 | 0.0 | 3.2 | 0.00 | 0.00 | 0.00 | 73 | 1007.2 |
| 20260507232003 | 20 | 22 | 0.0 | 3.2 | 0.00 | 0.00 | 0.00 | 68 | 1007.4 |